{"data":{"norad_id":64429,"intl_designator":"2025-129T","name":"STARLINK-34501","alt_names":[],"object_type":"PAYLOAD","status":"ACTIVE","operator":null,"country":"US","launch_date":"2025-06-17","launch_site_code":"AFWTR","launch_vehicle":null,"mission":null,"orbit_class":"UNKNOWN","rcs_meters":null,"size_class":null,"mass_kg":null,"dimensions":null,"purposes":["comms"],"wikipedia_slug":null,"has_3d_model":false,"image_url":null,"decayed_at":null,"tle_current":{"epoch":"2026-05-24T19:01:33.389184Z","epoch_age_seconds":88859,"freshness":"FRESH","line1":"1 64429U 25129T   26144.79274756  .00001981  00000+0  17375-3 0  9992","line2":"2 64429  70.0008 242.6981 0002909 267.9705  92.1121 14.98334423 52688","mean_motion":14.98334423,"eccentricity":0.0002909,"inclination_deg":70.0008,"raan_deg":242.6981,"arg_perigee_deg":267.9705,"mean_anomaly_deg":92.1121,"bstar":0.00017375,"rev_number":5268,"period_min":96.10671542317,"perigee_km":570.02040608229,"apogee_km":574.06402034854,"semimajor_km":6950.1792132154,"source":"CELESTRAK","updated_at":"2026-05-25T13:38:20.442844Z"}}}